Time,TemperatureF,DewpointF,PressureIn,WindDirection,WindDirectionDegrees,WindSpeedMPH,WindSpeedGustMPH,Humidity,HourlyPrecipIn,Conditions,Clouds,dailyrainin,SoftwareType,DateUTC
2013-01-25 00:01:00,26.7,12.3,30.28,ESE,115,1.0,2.0,54,0.00,,,0.00,Wunderground v.1.15,2013-01-25 06:01:00,
2013-01-25 00:06:00,26.7,12.3,30.28,ESE,122,1.0,3.0,54,0.00,,,0.00,Wunderground v.1.15,2013-01-25 06:06:00,
2013-01-25 00:11:00,26.7,12.3,30.28,SE,124,2.0,2.0,54,0.00,,,0.00,Wunderground v.1.15,2013-01-25 06:11:00,
2013-01-25 00:21:00,26.8,12.4,30.28,East,96,1.0,1.0,54,0.00,,,0.00,Wunderground v.1.15,2013-01-25 06:21:00,
2013-01-25 00:26:00,26.9,12.5,30.28,ESE,113,1.0,1.0,54,0.00,,,0.00,Wunderground v.1.15,2013-01-25 06:26:00,
2013-01-25 00:31:00,26.9,12.0,30.29,ENE,76,0.0,3.0,53,0.00,,,0.00,Wunderground v.1.15,2013-01-25 06:31:00,
2013-01-25 00:36:00,27.0,12.1,30.30,ESE,108,1.0,3.0,53,0.00,,,0.00,Wunderground v.1.15,2013-01-25 06:36:00,
2013-01-25 00:46:00,27.0,12.1,30.30,ENE,68,1.0,1.0,53,0.00,,,0.00,Wunderground v.1.15,2013-01-25 06:46:00,
2013-01-25 00:51:00,27.1,12.2,30.31,SE,130,1.0,1.0,53,0.00,,,0.00,Wunderground v.1.15,2013-01-25 06:51:00,
2013-01-25 00:56:00,27.1,12.2,30.31,East,95,0.0,1.0,53,0.00,,,0.00,Wunderground v.1.15,2013-01-25 06:56:00,
2013-01-25 01:06:00,27.2,12.3,30.30,NE,56,1.0,1.0,53,0.00,,,0.00,Wunderground v.1.15,2013-01-25 07:06:00,
2013-01-25 01:11:00,27.2,11.9,30.30,East,81,1.0,1.0,52,0.00,,,0.00,Wunderground v.1.15,2013-01-25 07:11:00,
2013-01-25 01:16:00,27.2,11.9,30.29,East,101,1.0,1.0,52,0.00,,,0.00,Wunderground v.1.15,2013-01-25 07:16:00,
2013-01-25 01:21:00,27.2,12.3,30.29,East,98,1.0,1.0,53,0.00,,,0.00,Wunderground v.1.15,2013-01-25 07:21:00,
2013-01-25 01:26:00,27.2,12.3,30.28,ESE,111,1.0,2.0,53,0.00,,,0.00,Wunderground v.1.15,2013-01-25 07:26:00,
2013-01-25 01:31:00,27.1,12.2,30.27,ESE,119,1.0,1.0,53,0.00,,,0.00,Wunderground v.1.15,2013-01-25 07:31:00,
2013-01-25 01:36:00,27.2,12.3,30.27,ESE,111,1.0,1.0,53,0.00,,,0.00,Wunderground v.1.15,2013-01-25 07:36:00,
2013-01-25 01:41:00,27.2,12.3,30.26,East,89,1.0,1.0,53,0.00,,,0.00,Wunderground v.1.15,2013-01-25 07:41:00,
2013-01-25 01:46:00,27.2,12.3,30.26,ESE,107,1.0,1.0,53,0.00,,,0.00,Wunderground v.1.15,2013-01-25 07:46:00,
2013-01-25 01:51:00,27.1,11.8,30.25,ESE,108,1.0,1.0,52,0.00,,,0.00,Wunderground v.1.15,2013-01-25 07:51:00,
2013-01-25 01:56:00,27.1,12.2,30.25,ESE,103,1.0,1.0,53,0.00,,,0.00,Wunderground v.1.15,2013-01-25 07:56:00,
2013-01-25 02:06:00,27.2,12.3,30.24,ESE,118,1.0,3.0,53,0.00,,,0.00,Wunderground v.1.15,2013-01-25 08:06:00,
2013-01-25 02:11:00,27.2,12.3,30.23,ESE,117,1.0,1.0,53,0.00,,,0.00,Wunderground v.1.15,2013-01-25 08:11:00,
2013-01-25 02:16:00,27.2,12.3,30.24,ESE,120,0.0,1.0,53,0.00,,,0.00,Wunderground v.1.15,2013-01-25 08:16:00,
2013-01-25 02:21:00,27.3,12.0,30.24,SE,125,1.0,1.0,52,0.00,,,0.00,Wunderground v.1.15,2013-01-25 08:21:00,
2013-01-25 02:26:00,27.3,12.0,30.24,SE,124,1.0,1.0,52,0.00,,,0.00,Wunderground v.1.15,2013-01-25 08:26:00,
2013-01-25 02:36:00,27.3,12.0,30.25,East,98,0.0,2.0,52,0.00,,,0.00,Wunderground v.1.15,2013-01-25 08:36:00,
2013-01-25 02:41:00,27.3,12.0,30.25,ESE,111,0.0,0.0,52,0.00,,,0.00,Wunderground v.1.15,2013-01-25 08:41:00,
2013-01-25 02:46:00,27.3,12.0,30.25,ESE,115,0.0,0.0,52,0.00,,,0.00,Wunderground v.1.15,2013-01-25 08:46:00,
2013-01-25 02:51:00,27.3,12.0,30.24,ESE,113,0.0,0.0,52,0.00,,,0.00,Wunderground v.1.15,2013-01-25 08:51:00,
2013-01-25 02:56:00,27.3,12.0,30.23,ESE,118,0.0,0.0,52,0.00,,,0.00,Wunderground v.1.15,2013-01-25 08:56:00,
2013-01-25 03:06:00,27.3,12.0,30.22,East,89,0.0,0.0,52,0.00,,,0.00,Wunderground v.1.15,2013-01-25 09:06:00,
2013-01-25 03:11:00,27.3,12.4,30.23,East,89,0.0,0.0,53,0.00,,,0.00,Wunderground v.1.15,2013-01-25 09:11:00,
2013-01-25 03:16:00,27.3,12.4,30.22,East,89,0.0,0.0,53,0.00,,,0.00,Wunderground v.1.15,2013-01-25 09:16:00,
2013-01-25 03:21:00,27.3,12.0,30.22,SE,127,0.0,0.0,52,0.00,,,0.00,Wunderground v.1.15,2013-01-25 09:21:00,
2013-01-25 03:26:00,27.3,12.0,30.24,SE,127,0.0,0.0,52,0.00,,,0.00,Wunderground v.1.15,2013-01-25 09:26:00,
2013-01-25 03:31:00,27.3,11.5,30.23,SE,127,0.0,0.0,51,0.00,,,0.00,Wunderground v.1.15,2013-01-25 09:31:00,
2013-01-25 03:41:00,27.3,11.5,30.24,SE,127,0.0,0.0,51,0.00,,,0.00,Wunderground v.1.15,2013-01-25 09:41:00,
2013-01-25 03:46:00,27.4,12.1,30.25,SE,127,0.0,0.0,52,0.00,,,0.00,Wunderground v.1.15,2013-01-25 09:46:00,
2013-01-25 03:56:00,27.3,12.0,30.23,SE,127,0.0,0.0,52,0.00,,,0.00,Wunderground v.1.15,2013-01-25 09:56:00,
2013-01-25 04:01:00,27.3,12.0,30.23,SE,127,0.0,0.0,52,0.00,,,0.00,Wunderground v.1.15,2013-01-25 10:01:00,
2013-01-25 04:06:00,27.3,12.0,30.23,SE,127,0.0,0.0,52,0.00,,,0.00,Wunderground v.1.15,2013-01-25 10:06:00,
2013-01-25 04:16:00,27.3,12.4,30.23,SE,127,0.0,0.0,53,0.00,,,0.00,Wunderground v.1.15,2013-01-25 10:16:00,
2013-01-25 04:21:00,27.3,12.0,30.23,SE,127,0.0,0.0,52,0.00,,,0.00,Wunderground v.1.15,2013-01-25 10:21:00,
2013-01-25 04:26:00,27.3,13.2,30.23,SE,127,0.0,0.0,55,0.00,,,0.00,Wunderground v.1.15,2013-01-25 10:26:00,
2013-01-25 04:31:00,27.3,12.4,30.23,SE,127,0.0,0.0,53,0.00,,,0.00,Wunderground v.1.15,2013-01-25 10:31:00,
2013-01-25 04:36:00,27.3,12.4,30.24,SE,127,0.0,0.0,53,0.00,,,0.00,Wunderground v.1.15,2013-01-25 10:36:00,
2013-01-25 04:41:00,27.3,12.4,30.22,SE,127,0.0,0.0,53,0.00,,,0.00,Wunderground v.1.15,2013-01-25 10:41:00,
2013-01-25 04:46:00,27.3,12.8,30.22,SE,127,0.0,0.0,54,0.00,,,0.00,Wunderground v.1.15,2013-01-25 10:46:00,
2013-01-25 04:51:00,27.3,12.4,30.20,SE,127,0.0,0.0,53,0.00,,,0.00,Wunderground v.1.15,2013-01-25 10:51:00,
2013-01-25 04:56:00,27.3,12.8,30.21,SE,127,0.0,0.0,54,0.00,,,0.00,Wunderground v.1.15,2013-01-25 10:56:00,
2013-01-25 05:01:00,27.4,12.5,30.20,SE,127,0.0,0.0,53,0.00,,,0.00,Wunderground v.1.15,2013-01-25 11:01:00,
2013-01-25 05:06:00,27.4,12.5,30.20,ESE,119,0.0,0.0,53,0.00,,,0.00,Wunderground v.1.15,2013-01-25 11:06:00,
2013-01-25 05:11:00,27.4,12.5,30.21,ESE,119,0.0,0.0,53,0.00,,,0.00,Wunderground v.1.15,2013-01-25 11:11:00,
2013-01-25 05:16:00,27.4,12.9,30.21,ESE,118,0.0,0.0,54,0.00,,,0.00,Wunderground v.1.15,2013-01-25 11:16:00,
2013-01-25 05:21:00,27.4,12.5,30.21,ESE,119,0.0,0.0,53,0.00,,,0.00,Wunderground v.1.15,2013-01-25 11:21:00,
2013-01-25 05:26:00,27.4,12.5,30.22,ESE,118,0.0,0.0,53,0.00,,,0.00,Wunderground v.1.15,2013-01-25 11:26:00,
2013-01-25 05:31:00,27.4,12.5,30.22,ESE,119,0.0,0.0,53,0.00,,,0.00,Wunderground v.1.15,2013-01-25 11:31:00,
2013-01-25 05:36:00,27.4,12.9,30.22,ESE,119,0.0,0.0,54,0.00,,,0.00,Wunderground v.1.15,2013-01-25 11:36:00,
2013-01-25 05:41:00,27.4,12.5,30.21,ESE,119,0.0,0.0,53,0.00,,,0.00,Wunderground v.1.15,2013-01-25 11:41:00,
2013-01-25 05:46:00,27.4,12.9,30.19,ESE,120,0.0,1.0,54,0.00,,,0.00,Wunderground v.1.15,2013-01-25 11:46:00,
2013-01-25 05:51:00,27.4,12.9,30.20,ESE,120,0.0,0.0,54,0.00,,,0.00,Wunderground v.1.15,2013-01-25 11:51:00,
2013-01-25 05:56:00,27.4,12.5,30.20,ESE,120,0.0,0.0,53,0.00,,,0.00,Wunderground v.1.15,2013-01-25 11:56:00,
2013-01-25 06:01:00,27.4,12.5,30.20,ESE,120,0.0,0.0,53,0.00,,,0.00,Wunderground v.1.15,2013-01-25 12:01:00,
2013-01-25 06:06:00,27.5,13.0,30.20,ESE,120,0.0,0.0,54,0.00,,,0.00,Wunderground v.1.15,2013-01-25 12:06:00,
2013-01-25 06:11:00,27.5,13.0,30.19,ESE,120,0.0,0.0,54,0.00,,,0.00,Wunderground v.1.15,2013-01-25 12:11:00,
2013-01-25 06:16:00,27.5,13.0,30.20,ESE,120,0.0,0.0,54,0.00,,,0.00,Wunderground v.1.15,2013-01-25 12:16:00,
2013-01-25 06:21:00,27.5,13.0,30.20,ESE,120,0.0,0.0,54,0.00,,,0.00,Wunderground v.1.15,2013-01-25 12:21:00,
2013-01-25 06:26:00,27.6,13.5,30.20,ESE,120,0.0,0.0,55,0.00,,,0.00,Wunderground v.1.15,2013-01-25 12:26:00,
2013-01-25 06:31:00,27.6,13.1,30.19,ESE,120,0.0,0.0,54,0.00,,,0.00,Wunderground v.1.15,2013-01-25 12:31:00,
2013-01-25 06:36:00,27.6,13.5,30.19,ESE,120,0.0,0.0,55,0.00,,,0.00,Wunderground v.1.15,2013-01-25 12:36:00,
2013-01-25 06:46:00,27.7,13.2,30.19,ESE,120,0.0,0.0,54,0.00,,,0.00,Wunderground v.1.15,2013-01-25 12:46:00,
2013-01-25 06:51:00,27.7,13.2,30.19,ESE,120,0.0,0.0,54,0.00,,,0.00,Wunderground v.1.15,2013-01-25 12:51:00,
2013-01-25 06:56:00,27.6,13.5,30.20,ESE,120,0.0,0.0,55,0.00,,,0.00,Wunderground v.1.15,2013-01-25 12:56:00,
2013-01-25 07:06:00,27.6,13.5,30.20,ESE,120,0.0,0.0,55,0.00,,,0.00,Wunderground v.1.15,2013-01-25 13:06:00,
2013-01-25 07:11:00,27.6,13.5,30.21,ESE,120,0.0,0.0,55,0.00,,,0.00,Wunderground v.1.15,2013-01-25 13:11:00,
2013-01-25 07:16:00,27.6,13.5,30.22,ESE,120,0.0,0.0,55,0.00,,,0.00,Wunderground v.1.15,2013-01-25 13:16:00,
2013-01-25 07:21:00,27.5,13.4,30.22,ESE,120,0.0,0.0,55,0.00,,,0.00,Wunderground v.1.15,2013-01-25 13:21:00,
2013-01-25 07:26:00,27.5,13.8,30.22,ESE,120,0.0,0.0,56,0.00,,,0.00,Wunderground v.1.15,2013-01-25 13:26:00,
2013-01-25 07:31:00,27.5,13.8,30.22,ESE,120,0.0,0.0,56,0.00,,,0.00,Wunderground v.1.15,2013-01-25 13:31:00,
2013-01-25 07:41:00,27.6,13.9,30.22,ESE,120,0.0,0.0,56,0.00,,,0.00,Wunderground v.1.15,2013-01-25 13:41:00,
2013-01-25 07:46:00,27.7,14.0,30.22,ESE,120,0.0,0.0,56,0.00,,,0.00,Wunderground v.1.15,2013-01-25 13:46:00,
2013-01-25 07:51:00,27.8,14.1,30.22,ESE,120,0.0,0.0,56,0.00,,,0.00,Wunderground v.1.15,2013-01-25 13:51:00,
2013-01-25 07:56:00,27.9,14.2,30.22,ESE,120,0.0,0.0,56,0.00,,,0.00,Wunderground v.1.15,2013-01-25 13:56:00,
2013-01-25 08:01:00,28.1,14.4,30.22,ESE,120,0.0,0.0,56,0.00,,,0.00,Wunderground v.1.15,2013-01-25 14:01:00,
2013-01-25 08:06:00,28.2,14.5,30.22,ESE,120,0.0,0.0,56,0.00,,,0.00,Wunderground v.1.15,2013-01-25 14:06:00,
2013-01-25 08:11:00,28.4,14.7,30.22,WSW,248,0.0,0.0,56,0.00,,,0.00,Wunderground v.1.15,2013-01-25 14:11:00,
2013-01-25 08:16:00,28.6,14.9,30.22,WSW,248,0.0,0.0,56,0.00,,,0.00,Wunderground v.1.15,2013-01-25 14:16:00,
2013-01-25 08:21:00,28.8,15.1,30.22,WSW,248,0.0,0.0,56,0.00,,,0.00,Wunderground v.1.15,2013-01-25 14:21:00,
2013-01-25 08:31:00,29.0,15.2,30.23,WSW,258,0.0,0.0,56,0.00,,,0.00,Wunderground v.1.15,2013-01-25 14:31:00,
2013-01-25 08:36:00,29.1,15.7,30.22,WNW,290,0.0,0.0,57,0.00,,,0.00,Wunderground v.1.15,2013-01-25 14:36:00,
2013-01-25 08:41:00,29.2,16.2,30.23,West,278,0.0,0.0,58,0.00,,,0.00,Wunderground v.1.15,2013-01-25 14:41:00,
2013-01-25 08:46:00,29.3,15.9,30.23,WNW,290,0.0,0.0,57,0.00,,,0.00,Wunderground v.1.15,2013-01-25 14:46:00,
2013-01-25 08:51:00,29.5,16.5,30.23,WNW,290,0.0,0.0,58,0.00,,,0.00,Wunderground v.1.15,2013-01-25 14:51:00,
2013-01-25 09:01:00,29.8,16.8,30.23,WNW,297,0.0,1.0,58,0.00,,,0.00,Wunderground v.1.15,2013-01-25 15:01:00,
2013-01-25 09:06:00,29.8,17.2,30.23,WNW,293,0.0,1.0,59,0.00,,,0.00,Wunderground v.1.15,2013-01-25 15:06:00,
2013-01-25 09:11:00,30.0,17.8,30.23,West,274,0.0,1.0,60,0.00,,,0.00,Wunderground v.1.15,2013-01-25 15:11:00,
2013-01-25 09:16:00,30.1,17.9,30.23,West,269,0.0,1.0,60,0.00,,,0.00,Wunderground v.1.15,2013-01-25 15:16:00,
2013-01-25 09:21:00,30.4,18.5,30.23,WNW,283,0.0,1.0,61,0.00,,,0.00,Wunderground v.1.15,2013-01-25 15:21:00,
2013-01-25 09:26:00,30.5,18.6,30.23,WSW,250,0.0,1.0,61,0.00,,,0.00,Wunderground v.1.15,2013-01-25 15:26:00,
2013-01-25 09:31:00,30.6,18.7,30.23,West,278,1.0,1.0,61,0.00,,,0.00,Wunderground v.1.15,2013-01-25 15:31:00,
2013-01-25 09:36:00,30.9,19.4,30.23,SW,235,1.0,1.0,62,0.00,,,0.00,Wunderground v.1.15,2013-01-25 15:36:00,
2013-01-25 09:41:00,31.2,20.1,30.24,WSW,255,1.0,1.0,63,0.00,,,0.00,Wunderground v.1.15,2013-01-25 15:41:00,
2013-01-25 09:46:00,31.7,19.8,30.24,West,281,0.0,1.0,61,0.00,,,0.00,Wunderground v.1.15,2013-01-25 15:46:00,
2013-01-25 09:51:00,31.9,20.0,30.24,WNW,299,0.0,0.0,61,0.00,,,0.00,Wunderground v.1.15,2013-01-25 15:51:00,
2013-01-25 09:56:00,32.0,20.1,30.24,WNW,285,1.0,1.0,61,0.00,,,0.00,Wunderground v.1.15,2013-01-25 15:56:00,
2013-01-25 10:01:00,32.6,20.6,30.24,NW,323,0.0,1.0,61,0.00,,,0.00,Wunderground v.1.15,2013-01-25 16:01:00,
2013-01-25 10:06:00,32.8,20.4,30.24,NW,306,1.0,1.0,60,0.00,,,0.00,Wunderground v.1.15,2013-01-25 16:06:00,
2013-01-25 10:16:00,32.9,20.5,30.24,WSW,256,1.0,1.0,60,0.00,,,0.00,Wunderground v.1.15,2013-01-25 16:16:00,
2013-01-25 10:21:00,33.4,20.6,30.24,NE,44,1.0,1.0,59,0.00,,,0.00,Wunderground v.1.15,2013-01-25 16:21:00,
2013-01-25 10:26:00,33.7,20.9,30.23,WSW,248,1.0,1.0,59,0.00,,,0.00,Wunderground v.1.15,2013-01-25 16:26:00,
2013-01-25 10:31:00,34.0,20.8,30.23,West,273,1.0,1.0,58,0.00,,,0.00,Wunderground v.1.15,2013-01-25 16:31:00,
2013-01-25 10:36:00,34.0,20.8,30.23,NNW,335,1.0,1.0,58,0.00,,,0.00,Wunderground v.1.15,2013-01-25 16:36:00,
2013-01-25 10:41:00,34.5,21.2,30.22,NW,308,1.0,1.0,58,0.00,,,0.00,Wunderground v.1.15,2013-01-25 16:41:00,
2013-01-25 10:46:00,35.1,21.4,30.23,SW,235,1.0,1.0,57,0.00,,,0.00,Wunderground v.1.15,2013-01-25 16:46:00,
2013-01-25 10:51:00,35.6,21.4,30.22,NNE,31,2.0,2.0,56,0.00,,,0.00,Wunderground v.1.15,2013-01-25 16:51:00,
2013-01-25 10:56:00,36.0,21.4,30.22,West,278,2.0,2.0,55,0.00,,,0.00,Wunderground v.1.15,2013-01-25 16:56:00,
2013-01-25 11:01:00,36.7,22.0,30.22,NNE,16,1.0,1.0,55,0.00,,,0.00,Wunderground v.1.15,2013-01-25 17:01:00,
2013-01-25 11:06:00,36.8,22.1,30.22,North,349,1.0,1.0,55,0.00,,,0.00,Wunderground v.1.15,2013-01-25 17:06:00,
2013-01-25 11:11:00,36.9,21.8,30.22,North,353,2.0,3.0,54,0.00,,,0.00,Wunderground v.1.15,2013-01-25 17:11:00,
2013-01-25 11:16:00,36.9,21.8,30.22,NNW,330,2.0,3.0,54,0.00,,,0.00,Wunderground v.1.15,2013-01-25 17:16:00,
2013-01-25 11:26:00,37.1,22.0,30.22,WSW,246,2.0,2.0,54,0.00,,,0.00,Wunderground v.1.15,2013-01-25 17:26:00,
2013-01-25 11:31:00,37.3,22.2,30.22,ENE,60,2.0,2.0,54,0.00,,,0.00,Wunderground v.1.15,2013-01-25 17:31:00,
2013-01-25 11:36:00,37.3,22.2,30.21,WNW,300,2.0,2.0,54,0.00,,,0.00,Wunderground v.1.15,2013-01-25 17:36:00,
2013-01-25 11:41:00,37.6,22.4,30.21,West,263,2.0,2.0,54,0.00,,,0.00,Wunderground v.1.15,2013-01-25 17:41:00,
2013-01-25 11:46:00,37.7,22.1,30.20,NW,305,1.0,2.0,53,0.00,,,0.00,Wunderground v.1.15,2013-01-25 17:46:00,
2013-01-25 11:51:00,38.2,23.0,30.20,NNW,327,2.0,2.0,54,0.00,,,0.00,Wunderground v.1.15,2013-01-25 17:51:00,
2013-01-25 11:56:00,38.7,22.6,30.20,NE,41,1.0,2.0,52,0.00,,,0.00,Wunderground v.1.15,2013-01-25 17:56:00,
2013-01-25 12:01:00,38.6,23.4,30.20,NW,323,1.0,1.0,54,0.00,,,0.00,Wunderground v.1.15,2013-01-25 18:01:00,
2013-01-25 12:06:00,38.9,23.2,30.19,WSW,250,2.0,3.0,53,0.00,,,0.00,Wunderground v.1.15,2013-01-25 18:06:00,
2013-01-25 12:11:00,38.9,23.2,30.19,NNE,22,2.0,2.0,53,0.00,,,0.00,Wunderground v.1.15,2013-01-25 18:11:00,
2013-01-25 12:16:00,39.1,23.4,30.19,WSW,256,1.0,2.0,53,0.00,,,0.00,Wunderground v.1.15,2013-01-25 18:16:00,
2013-01-25 12:26:00,39.7,23.5,30.19,NW,323,1.0,1.0,52,0.00,,,0.00,Wunderground v.1.15,2013-01-25 18:26:00,
2013-01-25 12:31:00,40.3,23.6,30.19,West,262,1.0,1.0,51,0.00,,,0.00,Wunderground v.1.15,2013-01-25 18:31:00,
2013-01-25 12:36:00,40.6,23.4,30.19,NE,44,1.0,1.0,50,0.00,,,0.00,Wunderground v.1.15,2013-01-25 18:36:00,
2013-01-25 12:41:00,41.1,23.4,30.18,NNE,30,1.0,1.0,49,0.00,,,0.00,Wunderground v.1.15,2013-01-25 18:41:00,
2013-01-25 12:46:00,41.2,23.5,30.18,SE,124,1.0,1.0,49,0.00,,,0.00,Wunderground v.1.15,2013-01-25 18:46:00,
2013-01-25 12:51:00,41.3,23.1,30.18,South,177,1.0,4.0,48,0.00,,,0.00,Wunderground v.1.15,2013-01-25 18:51:00,
2013-01-25 12:56:00,41.5,22.7,30.18,West,279,1.0,4.0,47,0.00,,,0.00,Wunderground v.1.15,2013-01-25 18:56:00,
2013-01-25 13:01:00,41.5,23.2,30.18,WNW,285,1.0,1.0,48,0.00,,,0.00,Wunderground v.1.15,2013-01-25 19:01:00,
2013-01-25 13:11:00,41.0,22.8,30.18,NNW,340,1.0,1.0,48,0.00,,,0.00,Wunderground v.1.15,2013-01-25 19:11:00,
2013-01-25 13:16:00,41.3,22.1,30.18,North,352,2.0,4.0,46,0.00,,,0.00,Wunderground v.1.15,2013-01-25 19:16:00,
2013-01-25 13:21:00,41.1,22.4,30.18,NW,316,2.0,2.0,47,0.00,,,0.00,Wunderground v.1.15,2013-01-25 19:21:00,
2013-01-25 13:26:00,41.6,22.8,30.18,West,270,1.0,2.0,47,0.00,,,0.00,Wunderground v.1.15,2013-01-25 19:26:00,
2013-01-25 13:31:00,41.7,22.4,30.18,SSE,159,1.0,3.0,46,0.00,,,0.00,Wunderground v.1.15,2013-01-25 19:31:00,
2013-01-25 13:36:00,41.9,22.6,30.17,NW,304,2.0,3.0,46,0.00,,,0.00,Wunderground v.1.15,2013-01-25 19:36:00,
2013-01-25 13:41:00,42.1,22.3,30.17,North,359,1.0,1.0,45,0.00,,,0.00,Wunderground v.1.15,2013-01-25 19:41:00,
2013-01-25 13:46:00,42.4,22.5,30.17,WNW,297,1.0,2.0,45,0.00,,,0.00,Wunderground v.1.15,2013-01-25 19:46:00,
2013-01-25 13:51:00,42.5,22.1,30.17,NNE,19,1.0,1.0,44,0.00,,,0.00,Wunderground v.1.15,2013-01-25 19:51:00,
2013-01-25 13:56:00,42.4,22.0,30.17,WNW,287,1.0,1.0,44,0.00,,,0.00,Wunderground v.1.15,2013-01-25 19:56:00,
2013-01-25 14:01:00,42.6,22.2,30.18,NW,320,2.0,2.0,44,0.00,,,0.00,Wunderground v.1.15,2013-01-25 20:01:00,
2013-01-25 14:06:00,42.4,21.5,30.17,WNW,294,2.0,2.0,43,0.00,,,0.00,Wunderground v.1.15,2013-01-25 20:06:00,
2013-01-25 14:11:00,42.5,22.1,30.17,West,281,2.0,2.0,44,0.00,,,0.00,Wunderground v.1.15,2013-01-25 20:11:00,
2013-01-25 14:16:00,43.0,22.0,30.17,West,264,1.0,2.0,43,0.00,,,0.00,Wunderground v.1.15,2013-01-25 20:16:00,
2013-01-25 14:21:00,43.5,22.5,30.17,WNW,302,0.0,0.0,43,0.00,,,0.00,Wunderground v.1.15,2013-01-25 20:21:00,
2013-01-25 14:31:00,43.3,21.7,30.17,West,270,1.0,1.0,42,0.00,,,0.00,Wunderground v.1.15,2013-01-25 20:31:00,
2013-01-25 14:36:00,43.5,22.5,30.17,WSW,256,1.0,3.0,43,0.00,,,0.00,Wunderground v.1.15,2013-01-25 20:36:00,
2013-01-25 14:41:00,43.7,22.1,30.17,NW,312,1.0,1.0,42,0.00,,,0.00,Wunderground v.1.15,2013-01-25 20:41:00,
2013-01-25 14:46:00,44.0,22.4,30.17,NW,313,1.0,1.0,42,0.00,,,0.00,Wunderground v.1.15,2013-01-25 20:46:00,
2013-01-25 14:51:00,43.9,22.3,30.17,WNW,284,1.0,1.0,42,0.00,,,0.00,Wunderground v.1.15,2013-01-25 20:51:00,
2013-01-25 14:56:00,44.0,22.4,30.17,WNW,284,1.0,1.0,42,0.00,,,0.00,Wunderground v.1.15,2013-01-25 20:56:00,
2013-01-25 15:01:00,44.3,22.6,30.17,WNW,297,1.0,1.0,42,0.00,,,0.00,Wunderground v.1.15,2013-01-25 21:01:00,
2013-01-25 15:06:00,44.5,22.8,30.17,NNE,27,1.0,1.0,42,0.00,,,0.00,Wunderground v.1.15,2013-01-25 21:06:00,
2013-01-25 15:11:00,44.8,22.5,30.17,SSE,150,1.0,1.0,41,0.00,,,0.00,Wunderground v.1.15,2013-01-25 21:11:00,
2013-01-25 15:16:00,44.9,22.6,30.17,WNW,288,0.0,1.0,41,0.00,,,0.00,Wunderground v.1.15,2013-01-25 21:16:00,
2013-01-25 15:21:00,45.0,22.1,30.17,WNW,301,0.0,1.0,40,0.00,,,0.00,Wunderground v.1.15,2013-01-25 21:21:00,
2013-01-25 15:31:00,45.1,22.2,30.17,West,276,1.0,1.0,40,0.00,,,0.00,Wunderground v.1.15,2013-01-25 21:31:00,
2013-01-25 15:41:00,44.8,22.5,30.16,WSW,242,1.0,1.0,41,0.00,,,0.00,Wunderground v.1.15,2013-01-25 21:41:00,
2013-01-25 15:46:00,44.8,22.5,30.16,WSW,252,1.0,1.0,41,0.00,,,0.00,Wunderground v.1.15,2013-01-25 21:46:00,
2013-01-25 15:51:00,44.8,22.5,30.17,WNW,301,1.0,1.0,41,0.00,,,0.00,Wunderground v.1.15,2013-01-25 21:51:00,
2013-01-25 15:56:00,44.6,22.3,30.16,WSW,242,0.0,1.0,41,0.00,,,0.00,Wunderground v.1.15,2013-01-25 21:56:00,
2013-01-25 16:01:00,44.4,22.1,30.17,WNW,298,1.0,3.0,41,0.00,,,0.00,Wunderground v.1.15,2013-01-25 22:01:00,
2013-01-25 16:06:00,44.1,22.4,30.17,WNW,293,1.0,3.0,42,0.00,,,0.00,Wunderground v.1.15,2013-01-25 22:06:00,
2013-01-25 16:11:00,44.0,22.4,30.17,WNW,302,1.0,1.0,42,0.00,,,0.00,Wunderground v.1.15,2013-01-25 22:11:00,
2013-01-25 16:16:00,43.9,22.3,30.17,NW,315,1.0,3.0,42,0.00,,,0.00,Wunderground v.1.15,2013-01-25 22:16:00,
2013-01-25 16:21:00,43.7,22.1,30.17,WNW,284,2.0,2.0,42,0.00,,,0.00,Wunderground v.1.15,2013-01-25 22:21:00,
2013-01-25 16:31:00,43.5,22.5,30.17,NNW,338,1.0,1.0,43,0.00,,,0.00,Wunderground v.1.15,2013-01-25 22:31:00,
2013-01-25 16:36:00,43.4,22.4,30.17,WNW,283,1.0,2.0,43,0.00,,,0.00,Wunderground v.1.15,2013-01-25 22:36:00,
2013-01-25 16:41:00,43.3,22.3,30.17,WNW,295,1.0,1.0,43,0.00,,,0.00,Wunderground v.1.15,2013-01-25 22:41:00,
2013-01-25 16:51:00,43.0,22.0,30.18,West,273,1.0,1.0,43,0.00,,,0.00,Wunderground v.1.15,2013-01-25 22:51:00,
2013-01-25 16:56:00,42.9,22.5,30.18,West,279,1.0,1.0,44,0.00,,,0.00,Wunderground v.1.15,2013-01-25 22:56:00,
2013-01-25 17:01:00,42.7,22.3,30.18,NW,305,1.0,1.0,44,0.00,,,0.00,Wunderground v.1.15,2013-01-25 23:01:00,
2013-01-25 17:06:00,42.3,22.4,30.18,WNW,293,0.0,1.0,45,0.00,,,0.00,Wunderground v.1.15,2013-01-25 23:06:00,
2013-01-25 17:11:00,42.2,22.4,30.18,SSW,212,0.0,0.0,45,0.00,,,0.00,Wunderground v.1.15,2013-01-25 23:11:00,
2013-01-25 17:16:00,42.0,22.2,30.18,WNW,292,0.0,0.0,45,0.00,,,0.00,Wunderground v.1.15,2013-01-25 23:16:00,
2013-01-25 17:26:00,41.6,22.3,30.19,West,274,1.0,1.0,46,0.00,,,0.00,Wunderground v.1.15,2013-01-25 23:26:00,
2013-01-25 17:31:00,41.5,22.2,30.19,West,279,0.0,0.0,46,0.00,,,0.00,Wunderground v.1.15,2013-01-25 23:31:00,
2013-01-25 17:36:00,41.2,22.0,30.19,WNW,283,0.0,0.0,46,0.00,,,0.00,Wunderground v.1.15,2013-01-25 23:36:00,
2013-01-25 17:41:00,41.1,21.9,30.19,WNW,300,0.0,0.0,46,0.00,,,0.00,Wunderground v.1.15,2013-01-25 23:41:00,
2013-01-25 17:46:00,40.9,22.2,30.20,West,260,0.0,2.0,47,0.00,,,0.00,Wunderground v.1.15,2013-01-25 23:46:00,
2013-01-25 17:51:00,40.8,21.6,30.20,West,270,0.0,0.0,46,0.00,,,0.00,Wunderground v.1.15,2013-01-25 23:51:00,
2013-01-25 17:56:00,40.7,22.0,30.20,NW,305,0.0,0.0,47,0.00,,,0.00,Wunderground v.1.15,2013-01-25 23:56:00,
2013-01-25 18:01:00,40.6,21.9,30.20,West,278,0.0,0.0,47,0.00,,,0.00,Wunderground v.1.15,2013-01-26 00:01:00,
2013-01-25 18:06:00,40.4,21.7,30.21,WSW,257,0.0,0.0,47,0.00,,,0.00,Wunderground v.1.15,2013-01-26 00:06:00,
2013-01-25 18:16:00,40.1,21.5,30.21,NW,309,0.0,2.0,47,0.00,,,0.00,Wunderground v.1.15,2013-01-26 00:16:00,
2013-01-25 18:21:00,40.0,21.4,30.21,WNW,301,0.0,0.0,47,0.00,,,0.00,Wunderground v.1.15,2013-01-26 00:21:00,
2013-01-25 18:26:00,39.8,21.2,30.21,NW,315,0.0,0.0,47,0.00,,,0.00,Wunderground v.1.15,2013-01-26 00:26:00,
2013-01-25 18:31:00,39.7,21.6,30.21,West,280,0.0,0.0,48,0.00,,,0.00,Wunderground v.1.15,2013-01-26 00:31:00,
2013-01-25 18:36:00,39.5,20.9,30.21,WNW,285,0.0,0.0,47,0.00,,,0.00,Wunderground v.1.15,2013-01-26 00:36:00,
2013-01-25 18:41:00,39.4,21.3,30.21,WNW,288,0.0,0.0,48,0.00,,,0.00,Wunderground v.1.15,2013-01-26 00:41:00,
2013-01-25 18:46:00,39.2,21.1,30.21,WNW,284,0.0,0.0,48,0.00,,,0.00,Wunderground v.1.15,2013-01-26 00:46:00,
2013-01-25 18:51:00,39.0,20.9,30.21,WNW,283,0.0,0.0,48,0.00,,,0.00,Wunderground v.1.15,2013-01-26 00:51:00,
2013-01-25 18:56:00,38.9,21.3,30.21,West,278,0.0,0.0,49,0.00,,,0.00,Wunderground v.1.15,2013-01-26 00:56:00,
2013-01-25 19:01:00,38.8,21.3,30.21,WNW,290,0.0,0.0,49,0.00,,,0.00,Wunderground v.1.15,2013-01-26 01:01:00,
2013-01-25 19:06:00,38.8,21.3,30.21,WSW,252,0.0,0.0,49,0.00,,,0.00,Wunderground v.1.15,2013-01-26 01:06:00,
2013-01-25 19:11:00,38.7,21.2,30.21,WNW,283,0.0,0.0,49,0.00,,,0.00,Wunderground v.1.15,2013-01-26 01:11:00,
2013-01-25 19:16:00,38.5,21.0,30.21,WNW,290,0.0,1.0,49,0.00,,,0.00,Wunderground v.1.15,2013-01-26 01:16:00,
2013-01-25 19:21:00,38.5,21.0,30.21,WSW,258,0.0,0.0,49,0.00,,,0.00,Wunderground v.1.15,2013-01-26 01:21:00,
2013-01-25 19:26:00,38.5,21.0,30.21,WSW,238,0.0,1.0,49,0.00,,,0.00,Wunderground v.1.15,2013-01-26 01:26:00,
2013-01-25 19:31:00,38.4,20.9,30.21,WNW,288,0.0,0.0,49,0.00,,,0.00,Wunderground v.1.15,2013-01-26 01:31:00,
2013-01-25 19:36:00,38.3,20.8,30.21,WNW,288,0.0,0.0,49,0.00,,,0.00,Wunderground v.1.15,2013-01-26 01:36:00,
2013-01-25 19:41:00,38.3,20.8,30.21,WSW,243,0.0,0.0,49,0.00,,,0.00,Wunderground v.1.15,2013-01-26 01:41:00,
2013-01-25 19:46:00,38.3,20.8,30.22,West,276,0.0,0.0,49,0.00,,,0.00,Wunderground v.1.15,2013-01-26 01:46:00,
2013-01-25 19:51:00,38.2,20.7,30.21,West,278,0.0,0.0,49,0.00,,,0.00,Wunderground v.1.15,2013-01-26 01:51:00,
2013-01-25 19:56:00,38.2,20.7,30.21,WNW,299,1.0,1.0,49,0.00,,,0.00,Wunderground v.1.15,2013-01-26 01:56:00,
2013-01-25 20:01:00,38.1,20.6,30.21,West,280,0.0,0.0,49,0.00,,,0.00,Wunderground v.1.15,2013-01-26 02:01:00,
2013-01-25 20:06:00,37.9,20.4,30.22,West,269,0.0,1.0,49,0.00,,,0.00,Wunderground v.1.15,2013-01-26 02:06:00,
2013-01-25 20:11:00,37.9,20.4,30.21,West,259,0.0,0.0,49,0.00,,,0.00,Wunderground v.1.15,2013-01-26 02:11:00,
2013-01-25 20:16:00,37.9,20.4,30.21,West,259,0.0,0.0,49,0.00,,,0.00,Wunderground v.1.15,2013-01-26 02:16:00,
2013-01-25 20:21:00,37.8,20.8,30.21,WNW,291,0.0,0.0,50,0.00,,,0.00,Wunderground v.1.15,2013-01-26 02:21:00,
2013-01-25 20:26:00,37.8,20.8,30.21,NW,308,0.0,0.0,50,0.00,,,0.00,Wunderground v.1.15,2013-01-26 02:26:00,
2013-01-25 20:36:00,38.2,20.7,30.22,WNW,288,1.0,1.0,49,0.00,,,0.00,Wunderground v.1.15,2013-01-26 02:36:00,
2013-01-25 20:46:00,38.3,20.8,30.22,WNW,301,1.0,1.0,49,0.00,,,0.00,Wunderground v.1.15,2013-01-26 02:46:00,
2013-01-25 20:56:00,38.3,20.8,30.22,WNW,284,1.0,1.0,49,0.00,,,0.00,Wunderground v.1.15,2013-01-26 02:56:00,
2013-01-25 21:06:00,38.1,20.6,30.23,WNW,298,0.0,1.0,49,0.00,,,0.00,Wunderground v.1.15,2013-01-26 03:06:00,
2013-01-25 21:11:00,38.0,20.5,30.23,WNW,298,0.0,1.0,49,0.00,,,0.00,Wunderground v.1.15,2013-01-26 03:11:00,
2013-01-25 21:16:00,37.9,20.9,30.23,West,261,0.0,2.0,50,0.00,,,0.00,Wunderground v.1.15,2013-01-26 03:16:00,
2013-01-25 21:21:00,37.9,20.9,30.23,WSW,249,0.0,1.0,50,0.00,,,0.00,Wunderground v.1.15,2013-01-26 03:21:00,
2013-01-25 21:31:00,37.6,20.6,30.23,WNW,290,0.0,0.0,50,0.00,,,0.00,Wunderground v.1.15,2013-01-26 03:31:00,
2013-01-25 21:36:00,37.6,20.6,30.23,WNW,301,1.0,2.0,50,0.00,,,0.00,Wunderground v.1.15,2013-01-26 03:36:00,
2013-01-25 21:41:00,37.6,20.6,30.24,WNW,297,0.0,1.0,50,0.00,,,0.00,Wunderground v.1.15,2013-01-26 03:41:00,
2013-01-25 21:46:00,37.6,20.6,30.24,WSW,243,0.0,1.0,50,0.00,,,0.00,Wunderground v.1.15,2013-01-26 03:46:00,
2013-01-25 21:51:00,37.6,20.6,30.24,WSW,253,1.0,1.0,50,0.00,,,0.00,Wunderground v.1.15,2013-01-26 03:51:00,
2013-01-25 22:01:00,37.5,21.0,30.24,WNW,297,0.0,0.0,51,0.00,,,0.00,Wunderground v.1.15,2013-01-26 04:01:00,
2013-01-25 22:06:00,37.4,20.9,30.25,NW,319,0.0,0.0,51,0.00,,,0.00,Wunderground v.1.15,2013-01-26 04:06:00,
2013-01-25 22:11:00,37.4,20.9,30.25,WNW,290,0.0,0.0,51,0.00,,,0.00,Wunderground v.1.15,2013-01-26 04:11:00,
2013-01-25 22:16:00,37.3,20.8,30.25,West,277,0.0,0.0,51,0.00,,,0.00,Wunderground v.1.15,2013-01-26 04:16:00,
2013-01-25 22:21:00,37.4,21.4,30.25,WSW,248,0.0,0.0,52,0.00,,,0.00,Wunderground v.1.15,2013-01-26 04:21:00,
2013-01-25 22:31:00,37.3,21.3,30.25,WNW,300,0.0,1.0,52,0.00,,,0.00,Wunderground v.1.15,2013-01-26 04:31:00,
2013-01-25 22:36:00,37.1,21.1,30.26,West,278,0.0,1.0,52,0.00,,,0.00,Wunderground v.1.15,2013-01-26 04:36:00,
2013-01-25 22:41:00,37.1,21.1,30.26,WNW,300,0.0,0.0,52,0.00,,,0.00,Wunderground v.1.15,2013-01-26 04:41:00,
2013-01-25 22:46:00,37.0,21.4,30.26,NW,304,0.0,0.0,53,0.00,,,0.00,Wunderground v.1.15,2013-01-26 04:46:00,
2013-01-25 22:51:00,36.8,21.3,30.26,WNW,295,0.0,0.0,53,0.00,,,0.00,Wunderground v.1.15,2013-01-26 04:51:00,
2013-01-25 22:56:00,36.7,21.2,30.26,NNE,16,0.0,0.0,53,0.00,,,0.00,Wunderground v.1.15,2013-01-26 04:56:00,
2013-01-25 23:01:00,36.4,21.3,30.27,SSE,159,0.0,0.0,54,0.00,,,0.00,Wunderground v.1.15,2013-01-26 05:01:00,
2013-01-25 23:06:00,36.1,21.5,30.27,NW,308,0.0,0.0,55,0.00,,,0.00,Wunderground v.1.15,2013-01-26 05:06:00,
2013-01-25 23:11:00,36.3,21.2,30.27,WSW,245,0.0,0.0,54,0.00,,,0.00,Wunderground v.1.15,2013-01-26 05:11:00,
2013-01-25 23:16:00,36.0,21.4,30.27,WNW,287,0.0,0.0,55,0.00,,,0.00,Wunderground v.1.15,2013-01-26 05:16:00,
2013-01-25 23:26:00,36.0,21.4,30.27,West,269,0.0,0.0,55,0.00,,,0.00,Wunderground v.1.15,2013-01-26 05:26:00,
2013-01-25 23:31:00,35.6,21.4,30.27,West,269,0.0,0.0,56,0.00,,,0.00,Wunderground v.1.15,2013-01-26 05:31:00,
2013-01-25 23:36:00,35.4,21.2,30.27,West,269,0.0,0.0,56,0.00,,,0.00,Wunderground v.1.15,2013-01-26 05:36:00,
2013-01-25 23:46:00,35.0,21.3,30.27,SE,124,0.0,0.0,57,0.00,,,0.00,Wunderground v.1.15,2013-01-26 05:46:00,
2013-01-25 23:51:00,35.1,21.4,30.28,West,278,0.0,0.0,57,0.00,,,0.00,Wunderground v.1.15,2013-01-26 05:51:00,